| time (UTC) | temp F | wind direction | speed MPH | gust MPH | rain 1hr in | rain 24hr in | rain mn in | humidity % | barometer mb |
| 20260503000015 | 71 | 69 | 5.0 | 6.0 | 0.00 | 0.00 | 0.00 | 7 | 1022.2 |
| 20260502235015 | 71 | 25 | 3.0 | 5.0 | 0.00 | 0.00 | 0.00 | 7 | 1022.3 |
| 20260502234014 | 70 | 43 | 1.0 | 3.0 | 0.00 | 0.00 | 0.00 | 7 | 1022.5 |
| 20260502233014 | 70 | 45 | 5.0 | 8.0 | 0.00 | 0.00 | 0.00 | 7 | 1022.8 |
| 20260502232014 | 70 | 35 | 2.0 | 4.0 | 0.00 | 0.00 | 0.00 | 7 | 1022.7 |
| 20260502231014 | 70 | 80 | 1.0 | 3.0 | 0.00 | 0.00 | 0.00 | 7 | 1022.7 |
| 20260502230014 | 70 | 60 | 4.0 | 4.0 | 0.00 | 0.00 | 0.00 | 7 | 1022.7 |
| 20260502225014 | 69 | 19 | 3.0 | 4.0 | 0.00 | 0.00 | 0.00 | 7 | 1022.8 |
| 20260502224014 | 68 | 21 | 5.0 | 5.0 | 0.00 | 0.00 | 0.00 | 7 | 1022.8 |
| 20260502223014 | 68 | 25 | 4.0 | 4.0 | 0.00 | 0.00 | 0.00 | 7 | 1022.7 |
| 20260502222014 | 68 | 41 | 6.0 | 8.0 | 0.00 | 0.00 | 0.00 | 7 | 1022.8 |
| 20260502221014 | 67 | 6 | 4.0 | 6.0 | 0.00 | 0.00 | 0.00 | 7 | 1022.9 |
| 20260502220014 | 67 | 7 | 2.0 | 2.0 | 0.00 | 0.00 | 0.00 | 7 | 1022.7 |
| 20260502215014 | 67 | 0 | 0.0 | 1.0 | 0.00 | 0.00 | 0.00 | 7 | 1022.8 |
| 20260502214014 | 66 | 8 | 1.0 | 2.0 | 0.00 | 0.00 | 0.00 | 7 | 1022.4 |
| 20260502213014 | 66 | 38 | 3.0 | 3.0 | 0.00 | 0.00 | 0.00 | 8 | 1022.1 |
| 20260502212014 | 66 | 13 | 2.0 | 3.0 | 0.00 | 0.00 | 0.00 | 8 | 1022.4 |
| 20260502211014 | 65 | 40 | 1.0 | 2.0 | 0.00 | 0.00 | 0.00 | 8 | 1022.4 |
| 20260502210014 | 65 | 14 | 2.0 | 3.0 | 0.00 | 0.00 | 0.00 | 8 | 1022.2 |
| 20260502205014 | 65 | 20 | 3.0 | 3.0 | 0.00 | 0.00 | 0.00 | 8 | 1022.1 |
| 20260502204014 | 64 | 11 | 1.0 | 3.0 | 0.00 | 0.00 | 0.00 | 8 | 1022.2 |
| 20260502203014 | 65 | 9 | 1.0 | 1.0 | 0.00 | 0.00 | 0.00 | 8 | 1022.2 |
| 20260502202014 | 65 | 353 | 3.0 | 5.0 | 0.00 | 0.00 | 0.00 | 8 | 1022.2 |
| 20260502201014 | 65 | 335 | 1.0 | 3.0 | 0.00 | 0.00 | 0.00 | 8 | 1022.1 |
| 20260502200014 | 65 | 337 | 2.0 | 2.0 | 0.00 | 0.00 | 0.00 | 8 | 1022.1 |
| 20260502195014 | 65 | 6 | 3.0 | 3.0 | 0.00 | 0.00 | 0.00 | 8 | 1022.0 |
| 20260502194014 | 65 | 0 | 0.0 | 0.0 | 0.00 | 0.00 | 0.00 | 8 | 1021.9 |
| 20260502193014 | 65 | 14 | 2.0 | 2.0 | 0.00 | 0.00 | 0.00 | 8 | 1021.9 |
| 20260502192014 | 65 | 17 | 2.0 | 4.0 | 0.00 | 0.00 | 0.00 | 8 | 1021.8 |
| 20260502191014 | 65 | 39 | 1.0 | 2.0 | 0.00 | 0.00 | 0.00 | 8 | 1021.7 |
| 20260502190014 | 65 | 6 | 5.0 | 5.0 | 0.00 | 0.00 | 0.00 | 8 | 1021.7 |
| 20260502185014 | 65 | 0 | 0.0 | 1.0 | 0.00 | 0.00 | 0.00 | 8 | 1021.7 |
| 20260502184014 | 65 | 352 | 1.0 | 1.0 | 0.00 | 0.00 | 0.00 | 8 | 1021.8 |
| 20260502183014 | 65 | 349 | 2.0 | 2.0 | 0.00 | 0.00 | 0.00 | 8 | 1021.9 |
| 20260502182014 | 65 | 355 | 2.0 | 2.0 | 0.00 | 0.00 | 0.00 | 8 | 1022.0 |
| 20260502181014 | 66 | 3 | 1.0 | 2.0 | 0.00 | 0.00 | 0.00 | 8 | 1021.9 |
| 20260502164013 | 66 | 358 | 2.0 | 4.0 | 0.00 | 0.01 | 0.00 | 8 | 1022.2 |
| 20260502163013 | 66 | 0 | 0.0 | 0.0 | 0.00 | 0.01 | 0.00 | 8 | 1022.2 |
| 20260502162013 | 66 | 5 | 3.0 | 3.0 | 0.00 | 0.02 | 0.00 | 7 | 1022.5 |
| 20260502161013 | 66 | 358 | 4.0 | 4.0 | 0.00 | 0.02 | 0.00 | 7 | 1022.5 |
| 20260502152013 | 66 | 0 | 0.0 | 1.0 | 0.00 | 0.05 | 0.00 | 8 | 1022.7 |
| 20260502151013 | 66 | 345 | 1.0 | 1.0 | 0.00 | 0.05 | 0.00 | 8 | 1022.7 |
| 20260502123010 | 69 | 0 | 0.0 | 1.0 | 0.00 | 0.05 | 0.05 | 7 | 1023.5 |
| 20260502122010 | 69 | 22 | 4.0 | 4.0 | 0.00 | 0.05 | 0.05 | 7 | 1023.8 |
| 20260502121010 | 69 | 37 | 4.0 | 5.0 | 0.00 | 0.05 | 0.05 | 7 | 1023.8 |
| 20260502115010 | 69 | 39 | 2.0 | 4.0 | 0.00 | 0.05 | 0.05 | 7 | 1023.9 |
| 20260502114010 | 69 | 12 | 2.0 | 2.0 | 0.00 | 0.05 | 0.05 | 7 | 1023.8 |
| 20260502113010 | 69 | 63 | 6.0 | 6.0 | 0.00 | 0.05 | 0.05 | 7 | 1023.7 |
| 20260502112010 | 69 | 0 | 0.0 | 0.0 | 0.00 | 0.05 | 0.05 | 7 | 1023.9 |
| 20260502111010 | 69 | 37 | 2.0 | 2.0 | 0.00 | 0.05 | 0.05 | 7 | 1023.9 |
| 20260502110009 | 69 | 37 | 3.0 | 4.0 | 0.00 | 0.05 | 0.05 | 7 | 1023.8 |
| 20260502105009 | 69 | 26 | 4.0 | 4.0 | 0.00 | 0.05 | 0.05 | 7 | 1023.9 |
| 20260502104009 | 69 | 20 | 1.0 | 1.0 | 0.00 | 0.05 | 0.05 | 7 | 1024.0 |
| 20260502103009 | 69 | 0 | 0.0 | 0.0 | 0.00 | 0.05 | 0.05 | 7 | 1023.8 |
| 20260502102009 | 69 | 47 | 2.0 | 2.0 | 0.00 | 0.05 | 0.05 | 7 | 1023.8 |
| 20260502101009 | 69 | 38 | 8.0 | 9.0 | 0.00 | 0.05 | 0.05 | 7 | 1023.5 |
| 20260502091008 | 70 | 86 | 2.0 | 4.0 | 0.00 | 0.05 | 0.05 | 7 | 1023.4 |
| 20260502071007 | 69 | 25 | 1.0 | 1.0 | 0.00 | 0.05 | 0.05 | 7 | 1023.1 |
| 20260502070007 | 70 | 52 | 5.0 | 9.0 | 0.00 | 0.05 | 0.05 | 7 | 1023.2 |
| 20260502065007 | 70 | 25 | 9.0 | 9.0 | 0.00 | 0.05 | 0.05 | 7 | 1023.1 |
| 20260502064007 | 70 | 62 | 4.0 | 4.0 | 0.00 | 0.05 | 0.05 | 7 | 1023.1 |
| 20260502063007 | 70 | 81 | 4.0 | 4.0 | 0.00 | 0.05 | 0.05 | 7 | 1023.0 |
| 20260502062007 | 70 | 40 | 5.0 | 6.0 | 0.00 | 0.05 | 0.05 | 7 | 1023.0 |
| 20260502061007 | 70 | 75 | 9.0 | 9.0 | 0.00 | 0.05 | 0.05 | 7 | 1023.1 |
| 20260502060007 | 70 | 48 | 2.0 | 2.0 | 0.00 | 0.05 | 0.05 | 7 | 1023.0 |
| 20260502055007 | 70 | 20 | 6.0 | 6.0 | 0.00 | 0.05 | 0.05 | 7 | 1023.1 |
| 20260502054007 | 70 | 69 | 4.0 | 6.0 | 0.00 | 0.05 | 0.05 | 7 | 1023.0 |
| 20260502053007 | 70 | 17 | 6.0 | 6.0 | 0.00 | 0.05 | 0.05 | 7 | 1023.0 |
| 20260502052007 | 71 | 70 | 3.0 | 4.0 | 0.00 | 0.05 | 0.05 | 7 | 1023.1 |
| 20260502051007 | 72 | 67 | 4.0 | 4.0 | 0.00 | 0.05 | 0.05 | 7 | 1023.1 |
| 20260502050007 | 71 | 61 | 4.0 | 5.0 | 0.00 | 0.05 | 0.05 | 7 | 1023.0 |
| 20260502045007 | 71 | 39 | 3.0 | 4.0 | 0.00 | 0.05 | 0.05 | 7 | 1023.0 |
| 20260502044007 | 72 | 36 | 2.0 | 2.0 | 0.00 | 0.05 | 0.05 | 7 | 1023.1 |
| 20260502043007 | 72 | 65 | 4.0 | 7.0 | 0.00 | 0.05 | 0.05 | 7 | 1023.1 |
| 20260502042007 | 72 | 79 | 8.0 | 9.0 | 0.00 | 0.05 | 0.05 | 7 | 1023.2 |
| 20260502041007 | 72 | 39 | 9.0 | 9.0 | 0.00 | 0.05 | 0.05 | 7 | 1023.3 |
| 20260502040007 | 71 | 35 | 7.0 | 9.0 | 0.00 | 0.05 | 0.05 | 7 | 1023.2 |
| 20260502035007 | 71 | 74 | 4.0 | 4.0 | 0.00 | 0.05 | 0.05 | 7 | 1023.1 |
| 20260502034007 | 72 | 73 | 8.0 | 10.0 | 0.00 | 0.05 | 0.05 | 7 | 1023.2 |
| 20260502033007 | 73 | 47 | 7.0 | 8.0 | 0.00 | 0.05 | 0.05 | 7 | 1023.2 |
| 20260502032007 | 72 | 68 | 4.0 | 8.0 | 0.00 | 0.05 | 0.05 | 7 | 1023.4 |
| 20260502031007 | 73 | 67 | 7.0 | 9.0 | 0.00 | 0.05 | 0.05 | 7 | 1023.4 |
| 20260502030007 | 73 | 63 | 11.0 | 13.0 | 0.00 | 0.05 | 0.05 | 7 | 1023.5 |
| 20260502025007 | 73 | 349 | 4.0 | 4.0 | 0.00 | 0.05 | 0.05 | 7 | 1023.6 |
| 20260502024007 | 72 | 58 | 6.0 | 6.0 | 0.00 | 0.05 | 0.05 | 7 | 1023.9 |
| 20260502023007 | 72 | 26 | 3.0 | 3.0 | 0.00 | 0.05 | 0.05 | 7 | 1024.1 |
| 20260502022007 | 73 | 27 | 9.0 | 10.0 | 0.00 | 0.05 | 0.05 | 7 | 1024.3 |
| 20260502021007 | 73 | 76 | 3.0 | 4.0 | 0.00 | 0.05 | 0.05 | 7 | 1024.5 |
| 20260502020007 | 72 | 43 | 9.0 | 12.0 | 0.00 | 0.05 | 0.05 | 7 | 1024.7 |
| 20260502015007 | 72 | 31 | 8.0 | 8.0 | 0.00 | 0.05 | 0.05 | 7 | 1025.0 |
| 20260502014007 | 71 | 18 | 6.0 | 6.0 | 0.00 | 0.05 | 0.05 | 7 | 1025.1 |
| 20260502013007 | 70 | 47 | 4.0 | 4.0 | 0.00 | 0.05 | 0.05 | 7 | 1025.2 |
| 20260502012007 | 70 | 43 | 2.0 | 3.0 | 0.00 | 0.05 | 0.05 | 7 | 1025.4 |
| 20260502011007 | 70 | 358 | 2.0 | 4.0 | 0.00 | 0.05 | 0.05 | 7 | 1025.5 |
| 20260502010007 | 70 | 77 | 7.0 | 10.0 | 0.00 | 0.05 | 0.05 | 7 | 1025.7 |
| 20260502005007 | 72 | 15 | 8.0 | 8.0 | 0.00 | 0.05 | 0.05 | 7 | 1025.6 |
| 20260502004007 | 72 | 64 | 3.0 | 4.0 | 0.00 | 0.05 | 0.05 | 7 | 1025.6 |
| 20260502003007 | 71 | 39 | 2.0 | 2.0 | 0.00 | 0.05 | 0.05 | 7 | 1025.6 |
| 20260502002007 | 71 | 35 | 3.0 | 3.0 | 0.00 | 0.05 | 0.05 | 7 | 1025.8 |
| 20260502001007 | 70 | 38 | 6.0 | 6.0 | 0.00 | 0.05 | 0.05 | 8 | 1025.9 |